GLO2114 SBGL-SBFL

Flight info

Callsign GLO2114
Flight time 1h 16m
Altitude 36000
Route BITAK UN857 EGDED
Aircraft B737/M-SDFGIKLORWXY/LB1

Departure

Time 2026-05-05 04:42
Airport Rio Galeão – Tom Jobim International Airport (SBGL)

Arrival

Time 2026-05-05 05:58
Airport Hercílio Luz International Airport (SBFL)
Time Latitude Longitude Altitude Speed Heading
2026-05-05 04:27 -22.81244 -43.25194 21 ft 0 kts 27°
2026-05-05 04:32 -22.81257 -43.25201 21 ft 4 kts 23°
2026-05-05 04:32 -22.81279 -43.25210 23 ft 4 kts 12°
2026-05-05 04:32 -22.81302 -43.25212 24 ft 4 kts 344°
2026-05-05 04:32 -22.81317 -43.25202 21 ft 1 kts 305°
2026-05-05 04:35 -22.81316 -43.25204 21 ft 1 kts 305°
2026-05-05 04:35 -22.81305 -43.25221 22 ft 4 kts 305°
2026-05-05 04:35 -22.81281 -43.25258 22 ft 8 kts 305°
2026-05-05 04:35 -22.81239 -43.25309 21 ft 10 kts 319°
2026-05-05 04:36 -22.81174 -43.25357 21 ft 12 kts 333°
2026-05-05 04:36 -22.81086 -43.25383 21 ft 14 kts 352°
2026-05-05 04:36 -22.81000 -43.25381 21 ft 9 kts
2026-05-05 04:36 -22.80952 -43.25416 24 ft 9 kts 299°
2026-05-05 04:37 -22.80926 -43.25477 27 ft 9 kts 295°
2026-05-05 04:37 -22.80896 -43.25545 26 ft 12 kts 296°
2026-05-05 04:37 -22.80846 -43.25642 23 ft 10 kts 303°
2026-05-05 04:37 -22.80793 -43.25686 26 ft 10 kts 356°
2026-05-05 04:38 -22.80730 -43.25656 28 ft 10 kts 34°
2026-05-05 04:38 -22.80669 -43.25609 28 ft 11 kts 35°
2026-05-05 04:38 -22.80599 -43.25555 28 ft 14 kts 36°
2026-05-05 04:38 -22.80521 -43.25489 28 ft 14 kts 42°
2026-05-05 04:39 -22.80451 -43.25430 28 ft 12 kts 14°
2026-05-05 04:39 -22.80378 -43.25464 28 ft 12 kts 326°
2026-05-05 04:39 -22.80339 -43.25493 27 ft 0 kts 326°
2026-05-05 04:40 -22.80331 -43.25499 26 ft 4 kts 326°
2026-05-05 04:41 -22.80283 -43.25517 25 ft 11 kts 357°
2026-05-05 04:41 -22.80200 -43.25476 24 ft 15 kts 37°
2026-05-05 04:41 -22.80150 -43.25368 29 ft 26 kts 75°
2026-05-05 04:41 -22.80034 -43.24916 31 ft 97 kts 74°
2026-05-05 04:42 -22.79797 -43.23999 28 ft 154 kts 72°
2026-05-05 04:42 -22.79467 -43.22775 354 ft 174 kts 75°
2026-05-05 04:42 -22.79155 -43.21458 985 ft 181 kts 77°
2026-05-05 04:42 -22.78871 -43.20153 1761 ft 182 kts 75°
2026-05-05 04:43 -22.78563 -43.18727 2146 ft 209 kts 75°
2026-05-05 04:43 -22.78213 -43.17096 2424 ft 233 kts 75°
2026-05-05 04:43 -22.77841 -43.15341 3068 ft 243 kts 75°
2026-05-05 04:43 -22.77461 -43.13538 3863 ft 247 kts 75°
2026-05-05 04:44 -22.77074 -43.11701 4660 ft 252 kts 76°
2026-05-05 04:44 -22.76679 -43.09829 5457 ft 257 kts 77°
2026-05-05 04:44 -22.76284 -43.07956 6274 ft 260 kts 77°
2026-05-05 04:44 -22.75878 -43.06032 7096 ft 263 kts 78°
2026-05-05 04:45 -22.75762 -43.04059 7900 ft 265 kts 103°
2026-05-05 04:45 -22.76544 -43.02276 8783 ft 264 kts 133°
2026-05-05 04:45 -22.77952 -43.01014 9685 ft 264 kts 150°
2026-05-05 04:45 -22.79547 -43.00003 10525 ft 268 kts 152°
2026-05-05 04:46 -22.81180 -42.98993 11334 ft 272 kts 152°
2026-05-05 04:46 -22.82836 -42.97959 12173 ft 276 kts 153°
2026-05-05 04:46 -22.84647 -42.97323 12965 ft 275 kts 180°
2026-05-05 04:46 -22.86536 -42.97664 13588 ft 285 kts 205°
2026-05-05 04:47 -22.88280 -42.98869 13815 ft 310 kts 219°
2026-05-05 04:47 -22.90039 -43.00393 14021 ft 336 kts 220°
2026-05-05 04:47 -22.91890 -43.02035 14496 ft 349 kts 220°
2026-05-05 04:47 -22.93764 -43.03689 15234 ft 353 kts 220°
2026-05-05 04:48 -22.95692 -43.05370 16066 ft 355 kts 220°
2026-05-05 04:48 -22.97638 -43.07052 16884 ft 358 kts 220°
2026-05-05 04:48 -22.99603 -43.08746 17645 ft 363 kts 220°
2026-05-05 04:48 -23.01590 -43.10469 18407 ft 367 kts 220°
2026-05-05 04:49 -23.03586 -43.12213 19051 ft 371 kts 220°
2026-05-05 04:49 -23.05605 -43.13981 19731 ft 373 kts 220°
2026-05-05 04:49 -23.07611 -43.15738 20398 ft 376 kts 220°
2026-05-05 04:49 -23.09657 -43.17531 21058 ft 379 kts 220°
2026-05-05 04:50 -23.11723 -43.19341 21705 ft 383 kts 220°
2026-05-05 04:50 -23.13811 -43.21170 22345 ft 386 kts 220°
2026-05-05 04:50 -23.15914 -43.23014 22967 ft 390 kts 220°
2026-05-05 04:50 -23.18037 -43.24876 23549 ft 394 kts 220°
2026-05-05 04:51 -23.20187 -43.26761 24090 ft 397 kts 220°
2026-05-05 04:51 -23.22322 -43.28634 24614 ft 400 kts 220°
2026-05-05 04:51 -23.24490 -43.30537 25166 ft 402 kts 220°
2026-05-05 04:51 -23.26675 -43.32456 25693 ft 404 kts 220°
2026-05-05 04:52 -23.28870 -43.34385 26202 ft 407 kts 221°
2026-05-05 04:52 -23.31083 -43.36331 26692 ft 409 kts 221°
2026-05-05 04:52 -23.33308 -43.38287 27194 ft 412 kts 221°
2026-05-05 04:52 -23.35560 -43.40247 27649 ft 416 kts 220°
2026-05-05 04:53 -23.37069 -43.41543 27942 ft 418 kts 220°
2026-05-05 04:53 -23.40115 -43.44144 28544 ft 421 kts 220°
2026-05-05 04:53 -23.42427 -43.46118 29059 ft 422 kts 220°
2026-05-05 04:53 -23.44737 -43.48094 29608 ft 422 kts 220°
2026-05-05 04:54 -23.46295 -43.49429 30053 ft 420 kts 220°
2026-05-05 04:54 -23.48557 -43.51369 30684 ft 416 kts 220°
2026-05-05 04:54 -23.50821 -43.53314 31306 ft 412 kts 220°
2026-05-05 04:54 -23.53072 -43.55249 31871 ft 410 kts 220°
2026-05-05 04:55 -23.56065 -43.57825 32510 ft 409 kts 221°
2026-05-05 04:55 -23.57544 -43.59099 32869 ft 408 kts 221°
2026-05-05 04:55 -23.59762 -43.61008 33440 ft 404 kts 221°
2026-05-05 04:55 -23.61961 -43.62901 33999 ft 401 kts 221°
2026-05-05 04:56 -23.64112 -43.64834 34435 ft 398 kts 224°
2026-05-05 04:56 -23.66095 -43.66875 34826 ft 396 kts 226°
2026-05-05 04:56 -23.68044 -43.69004 35179 ft 395 kts 227°
2026-05-05 04:56 -23.69976 -43.71145 35530 ft 395 kts 227°
2026-05-05 04:57 -23.71906 -43.73273 35895 ft 393 kts 227°
2026-05-05 04:57 -23.73845 -43.75392 36173 ft 395 kts 226°
2026-05-05 04:57 -23.75811 -43.77526 36151 ft 400 kts 226°
2026-05-05 04:58 -23.79740 -43.81760 36165 ft 395 kts 226°
2026-05-05 04:58 -23.83622 -43.85934 36165 ft 390 kts 226°
2026-05-05 04:59 -23.87502 -43.90111 36172 ft 391 kts 226°
2026-05-05 04:59 -23.91366 -43.94274 36168 ft 392 kts 226°
2026-05-05 05:00 -23.95273 -43.98489 36168 ft 394 kts 226°
2026-05-05 05:00 -23.99156 -44.02681 36167 ft 394 kts 226°
2026-05-05 05:01 -24.03068 -44.06908 36173 ft 395 kts 226°
2026-05-05 05:01 -24.06985 -44.11145 36165 ft 396 kts 226°
2026-05-05 05:02 -24.10877 -44.15360 36158 ft 396 kts 226°
2026-05-05 05:02 -24.14792 -44.19604 36161 ft 396 kts 226°
2026-05-05 05:03 -24.18714 -44.23860 36165 ft 396 kts 226°
2026-05-05 05:03 -24.22636 -44.28120 36158 ft 396 kts 226°
2026-05-05 05:04 -24.26521 -44.32344 36154 ft 395 kts 226°
2026-05-05 05:04 -24.30424 -44.36591 36156 ft 396 kts 226°
2026-05-05 05:05 -24.34404 -44.40927 36186 ft 409 kts 226°
2026-05-05 05:05 -24.38484 -44.45375 36163 ft 414 kts 226°
2026-05-05 05:06 -24.42555 -44.49817 36152 ft 414 kts 226°
2026-05-05 05:06 -24.46640 -44.54280 36157 ft 413 kts 226°
2026-05-05 05:07 -24.50712 -44.58741 36165 ft 412 kts 226°
2026-05-05 05:07 -24.54744 -44.63236 36146 ft 412 kts 226°
2026-05-05 05:08 -24.58727 -44.67696 36148 ft 410 kts 226°
2026-05-05 05:08 -24.62729 -44.72178 36146 ft 409 kts 226°
2026-05-05 05:09 -24.66706 -44.76632 36163 ft 408 kts 226°
2026-05-05 05:09 -24.70688 -44.81093 36149 ft 408 kts 226°
2026-05-05 05:10 -24.74642 -44.85528 36148 ft 407 kts 226°
2026-05-05 05:10 -24.78618 -44.89990 36153 ft 407 kts 226°
2026-05-05 05:11 -24.82551 -44.94410 36165 ft 406 kts 226°
2026-05-05 05:11 -24.86511 -44.98864 36159 ft 406 kts 226°
2026-05-05 05:12 -24.90476 -45.03328 36156 ft 406 kts 226°
2026-05-05 05:12 -24.94405 -45.07756 36147 ft 406 kts 226°
2026-05-05 05:13 -24.98357 -45.12214 36154 ft 406 kts 226°
2026-05-05 05:13 -25.02314 -45.16683 36149 ft 406 kts 226°
2026-05-05 05:14 -25.06269 -45.21153 36148 ft 406 kts 226°
2026-05-05 05:14 -25.10199 -45.25599 36143 ft 407 kts 226°
2026-05-05 05:15 -25.14160 -45.30085 36153 ft 407 kts 226°
2026-05-05 05:15 -25.18084 -45.34534 36150 ft 407 kts 226°
2026-05-05 05:16 -25.22038 -45.39020 36147 ft 406 kts 226°
2026-05-05 05:16 -25.25982 -45.43500 36145 ft 406 kts 226°
2026-05-05 05:17 -25.29899 -45.47954 36146 ft 406 kts 226°
2026-05-05 05:17 -25.33837 -45.52435 36141 ft 406 kts 226°
2026-05-05 05:18 -25.37772 -45.56918 36145 ft 405 kts 226°
2026-05-05 05:18 -25.41702 -45.61400 36146 ft 405 kts 226°
2026-05-05 05:19 -25.45606 -45.65857 36140 ft 405 kts 226°
2026-05-05 05:19 -25.49521 -45.70330 36142 ft 405 kts 226°
2026-05-05 05:20 -25.53447 -45.74822 36151 ft 405 kts 226°
2026-05-05 05:20 -25.57371 -45.79315 36142 ft 405 kts 226°
2026-05-05 05:21 -25.61259 -45.83772 36145 ft 405 kts 226°
2026-05-05 05:21 -25.65171 -45.88260 36140 ft 405 kts 226°
2026-05-05 05:22 -25.69089 -45.92758 36140 ft 404 kts 226°
2026-05-05 05:22 -25.72995 -45.97248 36142 ft 404 kts 226°
2026-05-05 05:23 -25.76904 -46.01747 36137 ft 404 kts 226°
2026-05-05 05:23 -25.80790 -46.06224 36140 ft 404 kts 226°
2026-05-05 05:24 -25.84696 -46.10730 36138 ft 404 kts 226°
2026-05-05 05:24 -25.88594 -46.15230 36140 ft 405 kts 226°
2026-05-05 05:25 -25.92502 -46.19746 36136 ft 405 kts 226°
2026-05-05 05:25 -25.96396 -46.24251 36135 ft 405 kts 226°
2026-05-05 05:26 -26.00275 -46.28744 36140 ft 405 kts 226°
2026-05-05 05:26 -26.04180 -46.33270 36137 ft 405 kts 226°
2026-05-05 05:27 -26.08085 -46.37802 36136 ft 405 kts 226°
2026-05-05 05:27 -26.13910 -46.44570 36136 ft 405 kts 226°
2026-05-05 05:28 -26.17813 -46.49112 36133 ft 405 kts 226°
2026-05-05 05:28 -26.21710 -46.53650 36135 ft 405 kts 226°
2026-05-05 05:29 -26.25582 -46.58165 36134 ft 405 kts 227°
2026-05-05 05:29 -26.29471 -46.62704 36132 ft 405 kts 227°
2026-05-05 05:30 -26.33363 -46.67252 36139 ft 405 kts 227°
2026-05-05 05:30 -26.37243 -46.71790 36133 ft 405 kts 227°
2026-05-05 05:31 -26.41131 -46.76339 36129 ft 404 kts 227°
2026-05-05 05:31 -26.45009 -46.80880 36131 ft 404 kts 227°
2026-05-05 05:32 -26.48890 -46.85428 36131 ft 404 kts 227°
2026-05-05 05:32 -26.52738 -46.89945 36130 ft 403 kts 227°
2026-05-05 05:33 -26.56611 -46.94494 36131 ft 403 kts 227°
2026-05-05 05:33 -26.60457 -46.99018 36131 ft 403 kts 227°
2026-05-05 05:34 -26.64296 -47.03601 36129 ft 403 kts 227°
2026-05-05 05:34 -26.68121 -47.08190 36131 ft 403 kts 227°
2026-05-05 05:35 -26.71951 -47.12778 36147 ft 403 kts 227°
2026-05-05 05:35 -26.75761 -47.17315 36129 ft 402 kts 227°
2026-05-05 05:36 -26.79607 -47.21876 36129 ft 402 kts 227°
2026-05-05 05:36 -26.83447 -47.26441 36124 ft 402 kts 227°
2026-05-05 05:37 -26.87269 -47.30991 36127 ft 401 kts 227°
2026-05-05 05:37 -26.91409 -47.35114 36137 ft 402 kts 218°
2026-05-05 05:38 -26.95993 -47.38719 36122 ft 402 kts 217°
2026-05-05 05:38 -27.00570 -47.42340 36125 ft 402 kts 218°
2026-05-05 05:39 -27.02864 -47.44187 35600 ft 409 kts 218°
2026-05-05 05:39 -27.05169 -47.46056 34964 ft 408 kts 218°
2026-05-05 05:39 -27.07445 -47.47907 34275 ft 409 kts 218°
2026-05-05 05:39 -27.09754 -47.49789 33427 ft 410 kts 217°
2026-05-05 05:40 -27.12065 -47.51671 32573 ft 411 kts 217°
2026-05-05 05:40 -27.14389 -47.53564 31720 ft 412 kts 217°
2026-05-05 05:40 -27.16710 -47.55467 30845 ft 414 kts 218°
2026-05-05 05:40 -27.18761 -47.57730 30135 ft 412 kts 231°
2026-05-05 05:41 -27.20491 -47.60276 29416 ft 407 kts 231°
2026-05-05 05:41 -27.22174 -47.62771 28726 ft 403 kts 231°
2026-05-05 05:41 -27.23860 -47.65256 28081 ft 397 kts 231°
2026-05-05 05:41 -27.25537 -47.67709 27431 ft 393 kts 231°
2026-05-05 05:42 -27.27203 -47.70132 26801 ft 388 kts 231°
2026-05-05 05:42 -27.28296 -47.71718 26389 ft 386 kts 231°
2026-05-05 05:42 -27.29936 -47.74097 25767 ft 382 kts 231°
2026-05-05 05:42 -27.31563 -47.76456 25152 ft 379 kts 231°
2026-05-05 05:43 -27.33177 -47.78797 24518 ft 378 kts 231°
2026-05-05 05:43 -27.34766 -47.81105 23898 ft 376 kts 231°
2026-05-05 05:43 -27.36365 -47.83429 23196 ft 375 kts 232°
2026-05-05 05:43 -27.37930 -47.85763 22537 ft 372 kts 233°
2026-05-05 05:44 -27.39469 -47.88099 21898 ft 369 kts 233°
2026-05-05 05:44 -27.40983 -47.90411 21283 ft 366 kts 233°
2026-05-05 05:44 -27.42491 -47.92712 20674 ft 364 kts 233°
2026-05-05 05:44 -27.43995 -47.95004 20067 ft 362 kts 233°
2026-05-05 05:45 -27.45489 -47.97280 19438 ft 362 kts 233°
2026-05-05 05:45 -27.46994 -47.99570 18821 ft 361 kts 233°
2026-05-05 05:45 -27.48469 -48.01816 18185 ft 361 kts 234°
2026-05-05 05:45 -27.49962 -48.04089 17528 ft 359 kts 234°
2026-05-05 05:46 -27.51443 -48.06343 16911 ft 356 kts 234°
2026-05-05 05:46 -27.52911 -48.08579 16305 ft 353 kts 234°
2026-05-05 05:46 -27.54363 -48.10792 15716 ft 350 kts 234°
2026-05-05 05:46 -27.55789 -48.12968 15121 ft 347 kts 234°
2026-05-05 05:47 -27.57223 -48.15157 14500 ft 346 kts 234°
2026-05-05 05:47 -27.58648 -48.17332 13917 ft 343 kts 235°
2026-05-05 05:47 -27.60062 -48.19493 13266 ft 341 kts 235°
2026-05-05 05:47 -27.61463 -48.21634 12658 ft 338 kts 235°
2026-05-05 05:48 -27.62852 -48.23757 12068 ft 334 kts 235°
2026-05-05 05:48 -27.64224 -48.25855 11495 ft 331 kts 235°
2026-05-05 05:48 -27.65554 -48.27958 10922 ft 327 kts 241°
2026-05-05 05:48 -27.66264 -48.30341 10659 ft 314 kts 263°
2026-05-05 05:49 -27.66254 -48.32718 10488 ft 301 kts 277°
2026-05-05 05:49 -27.65700 -48.34938 10352 ft 290 kts 292°
2026-05-05 05:49 -27.64763 -48.36894 10242 ft 277 kts 298°
2026-05-05 05:49 -27.63770 -48.38708 10109 ft 266 kts 299°
2026-05-05 05:50 -27.62792 -48.40466 9748 ft 265 kts 299°
2026-05-05 05:50 -27.61820 -48.42228 9377 ft 263 kts 299°
2026-05-05 05:50 -27.60861 -48.43989 8981 ft 263 kts 298°
2026-05-05 05:50 -27.59911 -48.45746 8618 ft 262 kts 298°
2026-05-05 05:51 -27.58967 -48.47497 8260 ft 261 kts 299°
2026-05-05 05:51 -27.58027 -48.49243 7904 ft 260 kts 299°
2026-05-05 05:51 -27.57100 -48.50966 7541 ft 260 kts 299°
2026-05-05 05:51 -27.56156 -48.52717 7151 ft 261 kts 299°
2026-05-05 05:52 -27.55214 -48.54462 6798 ft 260 kts 299°
2026-05-05 05:52 -27.54273 -48.56205 6447 ft 259 kts 299°
2026-05-05 05:52 -27.53335 -48.57940 6070 ft 258 kts 299°
2026-05-05 05:52 -27.52402 -48.59665 5710 ft 256 kts 299°
2026-05-05 05:53 -27.51477 -48.61376 5357 ft 255 kts 298°
2026-05-05 05:53 -27.50877 -48.63179 5135 ft 244 kts 274°
2026-05-05 05:53 -27.51046 -48.65030 4942 ft 237 kts 252°
2026-05-05 05:53 -27.51816 -48.66679 4605 ft 239 kts 234°
2026-05-05 05:54 -27.53073 -48.67891 4253 ft 237 kts 215°
2026-05-05 05:54 -27.54465 -48.68842 3937 ft 231 kts 214°
2026-05-05 05:54 -27.55855 -48.69722 3623 ft 229 kts 205°
2026-05-05 05:54 -27.57415 -48.69884 3250 ft 228 kts 168°
2026-05-05 05:55 -27.58739 -48.68976 2861 ft 226 kts 134°
2026-05-05 05:55 -27.59731 -48.67628 2547 ft 221 kts 129°
2026-05-05 05:55 -27.60609 -48.66241 2257 ft 213 kts 123°
2026-05-05 05:55 -27.61362 -48.64859 1974 ft 201 kts 120°
2026-05-05 05:56 -27.62060 -48.63547 1725 ft 187 kts 120°
2026-05-05 05:56 -27.62709 -48.62330 1465 ft 176 kts 120°
2026-05-05 05:56 -27.63307 -48.61215 1260 ft 160 kts 120°
2026-05-05 05:56 -27.63849 -48.60203 1058 ft 148 kts 120°
2026-05-05 05:57 -27.64369 -48.59232 883 ft 143 kts 120°
2026-05-05 05:57 -27.64885 -48.58268 699 ft 144 kts 119°
2026-05-05 05:57 -27.65406 -48.57295 509 ft 145 kts 119°
2026-05-05 05:57 -27.65936 -48.56318 278 ft 147 kts 119°
2026-05-05 05:58 -27.66465 -48.55324 102 ft 149 kts 120°
2026-05-05 05:58 -27.66987 -48.54347 30 ft 131 kts 121°
2026-05-05 05:58 -27.67351 -48.53672 24 ft 70 kts 121°
2026-05-05 05:58 -27.67523 -48.53355 30 ft 37 kts 121°
2026-05-05 05:59 -27.67646 -48.53127 28 ft 20 kts 121°
2026-05-05 05:59 -27.67733 -48.53082 25 ft 15 kts 209°
2026-05-05 05:59 -27.67801 -48.53131 26 ft 11 kts 224°
2026-05-05 05:59 -27.67794 -48.53210 24 ft 11 kts 300°
2026-05-05 06:00 -27.67755 -48.53284 27 ft 11 kts 301°
2026-05-05 06:00 -27.67715 -48.53359 27 ft 12 kts 301°
2026-05-05 06:00 -27.67671 -48.53440 27 ft 12 kts 301°
2026-05-05 06:00 -27.67623 -48.53529 26 ft 15 kts 301°
2026-05-05 06:01 -27.67558 -48.53649 27 ft 19 kts 301°
2026-05-05 06:01 -27.67488 -48.53778 28 ft 19 kts 301°
2026-05-05 06:01 -27.67421 -48.53902 31 ft 18 kts 301°
2026-05-05 06:01 -27.67356 -48.54022 26 ft 18 kts 301°
2026-05-05 06:02 -27.67294 -48.54139 27 ft 17 kts 301°
2026-05-05 06:02 -27.67233 -48.54250 27 ft 16 kts 301°
2026-05-05 06:02 -27.67181 -48.54347 27 ft 7 kts 301°
2026-05-05 06:02 -27.67153 -48.54399 27 ft 9 kts 301°
2026-05-05 06:03 -27.67109 -48.54480 27 ft 18 kts 301°
2026-05-05 06:03 -27.67082 -48.54581 28 ft 13 kts 241°
2026-05-05 06:03 -27.67151 -48.54619 28 ft 11 kts 179°
2026-05-05 06:03 -27.67211 -48.54576 28 ft 11 kts 127°
2026-05-05 06:04 -27.67239 -48.54526 28 ft 0 kts 136°
2026-05-05 06:04 -27.67250 -48.54525 28 ft 7 kts 180°
2026-05-05 06:04 -27.67268 -48.54532 28 ft 1 kts 208°
2026-05-05 06:04 -27.67271 -48.54534 28 ft 1 kts 209°
2026-05-05 06:05 -27.67281 -48.54541 28 ft 3 kts 210°
2026-05-05 06:05 -27.67282 -48.54541 28 ft 0 kts 210°